586  
ASUS41 KBOX 240204  
RWRBOX  
 
REGIONAL WEATHER ROUNDUP  
NATIONAL WEATHER SERVICE BOSTON/NORTON MA  
1000 PM EDT WED SEP 23 2020  
 
NOTE: "FAIR" INDICATES FEW OR NO CLOUDS BELOW 12,000 FEET WITH NO  
SIGNIFICANT WEATHER AND/OR S TO VISIBILITY
.  
 
MAZALL-240300-  
EASTERN MASSACHUSETTS  
 
CITY SKY/WX TMP DP RH WIND PRES REMARKS
 
BOSTON PTCLDY 67 50 54 W6 29.83R  
BEVERLY CLEAR 62 51 67 W5 29.81R  
LAWRENCE CLEAR 60 52 74 SW3 29.84R  
BEDFORD CLEAR 56 50 80 CALM 29.82R  
BLUE HILL N/A 63 52 67 W10 29.83R  
NORWOOD CLEAR 55 50 83 CALM 29.84R  
MARSHFIELD CLEAR 63 54 72 SW5 29.82R  
PLYMOUTH CLEAR 65 53 65 CALM 29.83R  
TAUNTON PTCLDY 57 53 86 CALM 29.84R  
NEW BEDFORD CLEAR 59 52 77 W3 29.84R  

 
 
MAZALL-240300-  
CAPE COD AND THE ISLANDS  
 
CITY SKY/WX TMP DP RH WIND PRES REMARKS
 
FALMOUTH CLEAR 63 54 72 W8 29.84R  
HYANNIS CLEAR 68 55 63 W6 29.82R  
CHATHAM CLEAR 62 55 77 CALM 29.83R  
PROVINCETOWN CLEAR 64 57 78 W8 29.82R  
NANTUCKET PTCLDY 65 59 81 W9 29.83R  
MARTHAS VNYRD CLEAR 64 55 72 W6 29.84R  

 
 
MAZALL-240300-  
CENTRAL AND WESTERN MASSACHUSETTS  
 
CITY SKY/WX TMP DP RH WIND PRES REMARKS
 
WORCESTER CLEAR 61 53 75 W8 29.88R  
FITCHBURG CLEAR 59 51 75 CALM 29.86R  
ORANGE CLEAR 57 54 89 CALM 29.87R  
SPRINGFIELD PTCLDY 65 52 64 NW7 29.86R  
WESTFIELD CLEAR 66 53 63 W8 29.88R  
NORTH ADAMS CLEAR 59 52 77 CALM 29.90R  
PITTSFIELD CLEAR 60 52 74 W8 29.91R  

 
 
RIZALL-240300-  
RHODE ISLAND  
 
CITY SKY/WX TMP DP RH WIND PRES REMARKS
 
PROVIDENCE PTCLDY 65 54 67 W6 29.86R  
NEWPORT CLEAR 67 54 63 NW5 29.86R  
BLOCK ISLAND CLEAR 67 55 65 NW8 29.88R  
SMITHFIELD CLEAR 63 55 75 W7 29.87R  
WESTERLY CLEAR 66 52 60 VRB3 29.88R  

 
 
CTZALL-240300-  
CONNECTICUT  
 
CITY SKY/WX TMP DP RH WIND PRES REMARKS
 
BRADLEY INTL PTCLDY 66 51 58 W12 29.88R  
HARTFORD CLEAR 71 50 47 NW7 29.88R  
BRIDGEPORT CLEAR 66 54 65 CALM 29.90R  
DANBURY CLEAR 56 54 93 SW3 29.92R  
GROTON CLEAR 65 53 65 NW6 29.87R  
NEW HAVEN CLEAR 69 56 62 W3 29.90R  
CHESTER FAIR 64 52 63 NW6 29.89S  
MERIDEN CLEAR 55 51 86 CALM 29.89R  
WILLIMANTIC CLEAR 60 52 74 NE3 29.89R  
OXFORD N/A 58 54 86 W3 29.92R  

 
 
MEZ002-015-021-024-NHZ003-005-008-011-012-014-VTZ005-008-240300-  
NORTHERN NEW ENGLAND  
 
CITY SKY/WX TMP DP RH WIND PRES REMARKS
 
PORTLAND ME CLEAR 66 50 56 W3 29.78R  
BANGOR ME CLEAR 62 50 64 W7 29.71R  
CONCORD NH CLEAR 58 49 72 CALM 29.82S  
MANCHESTER NH CLEAR 63 50 62 S3 29.82R  
NASHUA NH CLEAR 58 53 84 CALM 29.84R  
PORTSMOUTH NH CLEAR 63 49 60 W8 29.79R  
JAFFREY NH CLEAR 56 50 80 S5 29.87R  
KEENE NH CLEAR 53 51 93 CALM 29.86R  
BURLINGTON VT MOCLDY 64 53 67 W5 29.84R  
MT. WASHINGTON LGT RAIN 43 43 100 W67G75 N/A VSB 0 WCI 28  

 
 
NYZ052-076-240300-  
EASTERN NEW YORK  
 
CITY SKY/WX TMP DP RH WIND PRES REMARKS
 
ALBANY CLEAR 59 53 80 W10 29.90R  
NEW YORK CITY CLEAR 74 55 51 NW5 29.90R  

 
 
ANZALL-240300-  
MARINE OBSERVATIONS  
 
STATION/POSITION TIME TEMP WIND PRES VSBY WAVE
 
AIR SEA DIR/SP/G HT/PER  
(UTC) (F) (DEG/KT/KT) (MB) (MI) (FT/S)  
BOSTON BUOY 0150 64 61 280/ 8/ 8 1008.5R 4/11  
BUZZARDS BAY 0100 290/ 13/ 14 1011.2R  
NANTUCKET SOUND 0150 63 280/ 12/ 14 N/A 1/ 3  
MASS BAY-STELLWA 0104 65 320/ 8/ 10 1006.9R 1 7/8 4/11  
ISLE OF SHOALS NOT AVBL  
S OF BLOCK IS 0126 63 N/A 4/10  

 
   
.....................KEY......................
 
 
SKY/WX - SKY CONDITION/PRESENT WEATHER  
TMP - TEMPERATURE IN FAHRENHEIT  
DWPT - DEWPOINT IN FAHRENHEIT  
RH - RELATIVE HUMIDITY IN PERCENT  
WIND - DIRECTION AND SPEED IN MPH  
PRES - MEAN SEA LEVEL PRESSURE IN INCHES OF HG  
WCI - WIND CHILL INDEX  
VSB - VISIBILITY IN MILES  
HX - HEAT INDEX  
TC - TEMPERATURE IN CELSIUS  
VRB - VARIABLE WIND DIRECTION  
N/A - NOT AVAILABLE  
 
 
CLICK HERE TO GO TO PREVIOUS BULLETINS.

The Nexlab MA Page
The Nexlab RI Page
The Nexlab NH Page
The Nexlab CT Page Main Text Page